QPF
0.00 0.02 0.04 0.04 0.02 0.01 0.00 0.00 0.00 0.01 0.02 0.05 0.06 0.03 0.01 0.01 0.00 0.00 0.00 0.00 0.00 0.01 0.01 0.01 0.01 0.01 0.01 0.01 0.03 0.04 0.04 0.06 0.06 0.07 0.07 0.07 0.08 0.09 0.09 0.10 0.10 0.10 0.09 0.08
0.00 0.00 0.01 0.01 0.02 0.01 0.00 0.00 0.00 0.00 0.04 0.07 0.04 0.04 0.02 0.01 0.00 0.00 0.00 0.01 0.01 0.02 0.02 0.02 0.02 0.02 0.02 0.03 0.03 0.06 0.07 0.05 0.06 0.07 0.06 0.06 0.07 0.08 0.08 0.07 0.08 0.11 0.10 0.08
0.00 0.00 0.01 0.01 0.01 0.01 0.01 0.00 0.00 0.01 0.02 0.03 0.06 0.04 0.02 0.00 0.00 0.00 0.01 0.01 0.02 0.02 0.01 0.01 0.02 0.01 0.01 0.01 0.02 0.04 0.06 0.06 0.07 0.07 0.06 0.06 0.07 0.08 0.08 0.08 0.07 0.08 0.09 0.08
0.00 0.00 0.01 0.00 0.00 0.00 0.00 0.01 0.01 0.01 0.01 0.01 0.02 0.02 0.02 0.01 0.01 0.01 0.01 0.02 0.03 0.02 0.02 0.02 0.02 0.03 0.02 0.02 0.03 0.04 0.06 0.07 0.07 0.07 0.08 0.09 0.09 0.09 0.09 0.10 0.10 0.10 0.09 0.08
0.01 0.01 0.00 0.01 0.01 0.01 0.01 0.01 0.01 0.01 0.02 0.01 0.01 0.03 0.05 0.04 0.02 0.01 0.02 0.04 0.05 0.03 0.03 0.03 0.03 0.03 0.04 0.04 0.04 0.05 0.06 0.09 0.08 0.08 0.09 0.10 0.09 0.09 0.11 0.12 0.13 0.12 0.12 0.12
0.02 0.02 0.02 0.03 0.01 0.00 0.01 0.02 0.01 0.01 0.03 0.03 0.03 0.07 0.09 0.06 0.03 0.02 0.04 0.04 0.05 0.05 0.05 0.05 0.05 0.05 0.06 0.07 0.07 0.07 0.06 0.07 0.08 0.09 0.09 0.10 0.12 0.13 0.14 0.14 0.14 0.15 0.14 0.13
0.03 0.03 0.03 0.03 0.01 0.01 0.04 0.07 0.04 0.02 0.04 0.05 0.11 0.11 0.08 0.07 0.05 0.03 0.04 0.04 0.05 0.05 0.07 0.08 0.10 0.08 0.09 0.10 0.10 0.08 0.08 0.08 0.11 0.13 0.13 0.12 0.13 0.12 0.12 0.13 0.13 0.12 0.11 0.12
0.07 0.06 0.06 0.03 0.02 0.04 0.08 0.06 0.03 0.03 0.09 0.11 0.10 0.09 0.07 0.07 0.07 0.05 0.04 0.04 0.04 0.05 0.08 0.07 0.07 0.09 0.10 0.11 0.10 0.09 0.09 0.09 0.10 0.11 0.11 0.11 0.11 0.10 0.10 0.11 0.12 0.11 0.11 0.10
0.06 0.05 0.04 0.01 0.02 0.02 0.03 0.04 0.04 0.07 0.15 0.19 0.11 0.08 0.07 0.08 0.09 0.08 0.06 0.04 0.04 0.04 0.05 0.06 0.06 0.07 0.10 0.10 0.10 0.09 0.09 0.08 0.07 0.07 0.07 0.08 0.08 0.08 0.09 0.10 0.11 0.12 0.11 0.10
0.03 0.02 0.02 0.01 0.01 0.01 0.02 0.05 0.06 0.07 0.11 0.15 0.11 0.08 0.08 0.08 0.06 0.07 0.07 0.06 0.05 0.04 0.04 0.04 0.04 0.05 0.07 0.07 0.07 0.08 0.08 0.07 0.06 0.07 0.07 0.07 0.07 0.06 0.06 0.07 0.08 0.09 0.09 0.08
0.05 0.05 0.04 0.03 0.03 0.04 0.05 0.06 0.07 0.09 0.09 0.11 0.10 0.09 0.08 0.07 0.06 0.05 0.06 0.05 0.05 0.04 0.03 0.03 0.04 0.05 0.06 0.08 0.09 0.08 0.07 0.07 0.07 0.07 0.06 0.06 0.06 0.06 0.05 0.05 0.05 0.06 0.05 0.06
0.06 0.08 0.09 0.07 0.05 0.04 0.05 0.08 0.10 0.11 0.11 0.09 0.09 0.08 0.08 0.06 0.05 0.05 0.04 0.04 0.04 0.03 0.03 0.03 0.04 0.05 0.06 0.08 0.08 0.08 0.08 0.07 0.07 0.06 0.06 0.05 0.05 0.04 0.04 0.04 0.03 0.03 0.03 0.03
0.04 0.05 0.06 0.06 0.06 0.06 0.07 0.12 0.13 0.13 0.12 0.11 0.09 0.07 0.08 0.07 0.05 0.04 0.04 0.05 0.05 0.04 0.04 0.04 0.04 0.05 0.05 0.04 0.03 0.03 0.04 0.04 0.04 0.04 0.03 0.03 0.02 0.02 0.01 0.01 0.01 0.00 0.00 0.00
0.06 0.07 0.09 0.10 0.10 0.09 0.12 0.15 0.13 0.14 0.14 0.13 0.12 0.08 0.07 0.06 0.05 0.04 0.03 0.04 0.03 0.03 0.03 0.03 0.03 0.03 0.03 0.02 0.02 0.02 0.02 0.02 0.01 0.01 0.02 0.01 0.01 0.01 0.00 0.00 0.00 0.00 0.00 0.00
0.07 0.09 0.12 0.11 0.12 0.13 0.15 0.18 0.16 0.14 0.13 0.13 0.13 0.12 0.10 0.08 0.06 0.05 0.04 0.03 0.03 0.02 0.02 0.02 0.02 0.02 0.02 0.03 0.04 0.04 0.04 0.03 0.03 0.03 0.02 0.02 0.01 0.00 0.00 0.00 0.00 0.00 0.00 0.00
0.09 0.12 0.13 0.12 0.14 0.15 0.14 0.19 0.24 0.19 0.15 0.15 0.14 0.12 0.11 0.10 0.09 0.08 0.06 0.05 0.04 0.04 0.03 0.02 0.03 0.03 0.03 0.04 0.05 0.05 0.05 0.04 0.04 0.02 0.02 0.01 0.00 0.00 0.00 0.00 0.00 0.01 0.01 0.00
0.11 0.13 0.14 0.16 0.18 0.17 0.13 0.15 0.20 0.22 0.17 0.14 0.14 0.12 0.10 0.08 0.08 0.08 0.06 0.05 0.04 0.03 0.02 0.01 0.01 0.01 0.01 0.01 0.01 0.01 0.01 0.01 0.01 0.01 0.01 0.00 0.00 0.00 0.00 0.00 0.00 0.00 0.00 0.00
0.15 0.14 0.13 0.14 0.17 0.20 0.18 0.15 0.14 0.15 0.13 0.11 0.12 0.12 0.10 0.08 0.07 0.05 0.03 0.03 0.02 0.01 0.01 0.00 0.00 0.00 0.00 0.00 0.00 0.00 0.00 0.00 0.00 0.00 0.00 0.00 0.00 0.00 0.00 0.00 0.00 0.00 0.00 0.00
0.16 0.15 0.12 0.11 0.10 0.12 0.15 0.13 0.11 0.09 0.08 0.08 0.09 0.09 0.08 0.05 0.04 0.03 0.02 0.02 0.02 0.01 0.01 0.00 0.00 0.00 0.00 0.00 0.00 0.00 0.00 0.00 0.00 0.00 0.00 0.00 0.00 0.00 0.00 0.00 0.00 0.00 0.00 0.00
0.11 0.10 0.07 0.07 0.06 0.07 0.08 0.08 0.07 0.06 0.06 0.05 0.06 0.06 0.06 0.05 0.03 0.02 0.02 0.01 0.01 0.00 0.00 0.00 0.00 0.00 0.00 0.00 0.00 0.00 0.00 0.00 0.00 0.00 0.00 0.00 0.00 0.00 0.00 0.00 0.00 0.00 0.00 0.00
0.06 0.05 0.04 0.03 0.04 0.04 0.04 0.03 0.03 0.04 0.05 0.06 0.06 0.04 0.03 0.03 0.02 0.02 0.02 0.01 0.00 0.00 0.00 0.00 0.00 0.00 0.00 0.00 0.00 0.00 0.00 0.00 0.00 0.00 0.00 0.00 0.01 0.01 0.01 0.01 0.01 0.01 0.01 0.01
0.05 0.04 0.04 0.03 0.03 0.03 0.03 0.02 0.03 0.03 0.04 0.04 0.04 0.02 0.02 0.02 0.02 0.02 0.01 0.01 0.00 0.00 0.00 0.00 0.00 0.00 0.00 0.00 0.00 0.00 0.00 0.00 0.00 0.00 0.00 0.00 0.01 0.01 0.01 0.01 0.01 0.01 0.01 0.02
0.05 0.05 0.04 0.03 0.03 0.03 0.03 0.03 0.03 0.04 0.04 0.04 0.02 0.02 0.03 0.03 0.02 0.02 0.01 0.01 0.00 0.00 0.00 0.00 0.00 0.00 0.00 0.00 0.00 0.00 0.00 0.00 0.00 0.00 0.00 0.00 0.00 0.00 0.00 0.01 0.01 0.01 0.02 0.02
0.08 0.07 0.05 0.04 0.03 0.03 0.04 0.03 0.03 0.03 0.03 0.03 0.02 0.02 0.02 0.02 0.02 0.01 0.01 0.00 0.00 0.00 0.00 0.00 0.00 0.00 0.00 0.00 0.00 0.00 0.00 0.00 0.00 0.00 0.00 0.00 0.00 0.00 0.00 0.00 0.00 0.01 0.00 0.00
0.06 0.05 0.05 0.04 0.04 0.03 0.03 0.02 0.02 0.02 0.01 0.01 0.01 0.01 0.01 0.01 0.01 0.01 0.00 0.00 0.00 0.00 0.00 0.00 0.00 0.00 0.00 0.00 0.00 0.00 0.00 0.00 0.00 0.00 0.00 0.00 0.00 0.00 0.00 0.00 0.00 0.00 0.01 0.01
0.05 0.05 0.04 0.04 0.04 0.03 0.02 0.02 0.02 0.02 0.01 0.01 0.01 0.01 0.01 0.01 0.01 0.00 0.00 0.00 0.00 0.00 0.00 0.00 0.00 0.00 0.00 0.00 0.01 0.01 0.01 0.00 0.00 0.00 0.00 0.00 0.00 0.00 0.00 0.00 0.00 0.00 0.00 0.00
0.04 0.05 0.04 0.04 0.04 0.02 0.02 0.01 0.02 0.02 0.01 0.01 0.01 0.00 0.00 0.00 0.00 0.00 0.00 0.00 0.00 0.00 0.01 0.01 0.00 0.00 0.00 0.00 0.00 0.00 0.00 0.00 0.00 0.00 0.00 0.00 0.00 0.00 0.00 0.00 0.00 0.00 0.00 0.00
MSLP
1004.64 1004.86 1005.05 1005.22 1005.37 1005.49 1005.57 1005.58 1005.51 1005.34 1005.08 1004.75 1004.40 1004.06 1003.79 1003.64 1003.63 1003.80 1004.12 1004.58 1005.15 1005.79 1006.46 1007.14 1007.79 1008.41 1008.99 1009.54 1010.06 1010.56 1011.02 1011.45 1011.85 1012.21 1012.52 1012.80 1013.05 1013.28 1013.50 1013.72 1013.96 1014.20 1014.45 1014.70
1005.45 1005.63 1005.70 1005.69 1005.62 1005.50 1005.35 1005.18 1004.98 1004.78 1004.55 1004.32 1004.10 1003.90 1003.75 1003.68 1003.69 1003.81 1004.04 1004.36 1004.78 1005.28 1005.84 1006.44 1007.06 1007.70 1008.33 1008.95 1009.53 1010.07 1010.56 1010.99 1011.36 1011.68 1011.95 1012.19 1012.42 1012.65 1012.89 1013.16 1013.46 1013.77 1014.09 1014.41
1006.17 1006.30 1006.27 1006.10 1005.82 1005.49 1005.14 1004.81 1004.51 1004.27 1004.08 1003.94 1003.84 1003.78 1003.76 1003.77 1003.82 1003.92 1004.07 1004.29 1004.59 1004.96 1005.42 1005.95 1006.53 1007.17 1007.82 1008.47 1009.08 1009.65 1010.14 1010.55 1010.89 1011.16 1011.38 1011.58 1011.79 1012.03 1012.30 1012.63 1013.00 1013.39 1013.80 1014.20
1006.70 1006.78 1006.65 1006.35 1005.92 1005.42 1004.91 1004.46 1004.09 1003.83 1003.69 1003.64 1003.67 1003.76 1003.86 1003.98 1004.10 1004.21 1004.34 1004.50 1004.71 1004.99 1005.36 1005.81 1006.36 1006.96 1007.61 1008.26 1008.88 1009.43 1009.91 1010.29 1010.58 1010.80 1010.98 1011.15 1011.34 1011.59 1011.90 1012.28 1012.72 1013.21 1013.70 1014.17
1006.98 1006.99 1006.78 1006.38 1005.84 1005.23 1004.64 1004.12 1003.73 1003.49 1003.41 1003.47 1003.64 1003.88 1004.13 1004.38 1004.59 1004.76 1004.90 1005.03 1005.19 1005.42 1005.72 1006.11 1006.60 1007.17 1007.78 1008.41 1009.00 1009.53 1009.97 1010.31 1010.56 1010.74 1010.88 1011.03 1011.22 1011.48 1011.83 1012.26 1012.77 1013.33 1013.89 1014.42
1006.96 1006.92 1006.65 1006.19 1005.59 1004.94 1004.32 1003.81 1003.45 1003.27 1003.29 1003.48 1003.79 1004.18 1004.59 1004.97 1005.29 1005.54 1005.72 1005.87 1006.02 1006.21 1006.46 1006.81 1007.24 1007.76 1008.33 1008.91 1009.47 1009.96 1010.36 1010.66 1010.88 1011.04 1011.17 1011.31 1011.51 1011.79 1012.18 1012.66 1013.22 1013.82 1014.43 1015.00
1006.70 1006.60 1006.29 1005.81 1005.23 1004.60 1004.02 1003.57 1003.29 1003.22 1003.36 1003.68 1004.14 1004.68 1005.23 1005.74 1006.17 1006.50 1006.75 1006.93 1007.09 1007.26 1007.48 1007.79 1008.18 1008.64 1009.16 1009.70 1010.21 1010.67 1011.05 1011.33 1011.54 1011.70 1011.83 1011.99 1012.22 1012.53 1012.95 1013.46 1014.05 1014.68 1015.30 1015.87
1006.27 1006.12 1005.81 1005.36 1004.83 1004.29 1003.81 1003.47 1003.32 1003.38 1003.65 1004.11 1004.70 1005.36 1006.02 1006.63 1007.15 1007.56 1007.87 1008.08 1008.26 1008.43 1008.63 1008.91 1009.26 1009.68 1010.15 1010.65 1011.13 1011.57 1011.93 1012.22 1012.45 1012.62 1012.79 1012.99 1013.26 1013.61 1014.05 1014.58 1015.18 1015.80 1016.41 1016.95
1005.78 1005.61 1005.32 1004.93 1004.50 1004.10 1003.77 1003.58 1003.58 1003.78 1004.18 1004.75 1005.44 1006.18 1006.92 1007.60 1008.18 1008.63 1008.98 1009.22 1009.41 1009.58 1009.78 1010.03 1010.35 1010.74 1011.18 1011.64 1012.10 1012.53 1012.90 1013.21 1013.47 1013.70 1013.92 1014.17 1014.48 1014.86 1015.33 1015.87 1016.45 1017.05 1017.62 1018.11
1005.36 1005.19 1004.94 1004.65 1004.35 1004.10 1003.94 1003.93 1004.08 1004.42 1004.93 1005.58 1006.33 1007.12 1007.88 1008.58 1009.18 1009.65 1010.01 1010.27 1010.47 1010.65 1010.84 1011.08 1011.38 1011.74 1012.14 1012.59 1013.03 1013.46 1013.84 1014.18 1014.48 1014.76 1015.04 1015.34 1015.69 1016.11 1016.59 1017.12 1017.68 1018.24 1018.75 1019.18
1005.12 1004.96 1004.78 1004.60 1004.44 1004.35 1004.37 1004.52 1004.82 1005.27 1005.86 1006.56 1007.33 1008.12 1008.87 1009.55 1010.12 1010.58 1010.94 1011.20 1011.41 1011.59 1011.78 1012.01 1012.30 1012.63 1013.02 1013.43 1013.86 1014.27 1014.66 1015.02 1015.36 1015.68 1016.01 1016.35 1016.74 1017.18 1017.66 1018.18 1018.70 1019.21 1019.66 1020.03
1005.12 1004.99 1004.88 1004.80 1004.78 1004.85 1005.02 1005.31 1005.74 1006.28 1006.92 1007.64 1008.39 1009.14 1009.85 1010.48 1011.02 1011.45 1011.79 1012.06 1012.27 1012.46 1012.65 1012.88 1013.14 1013.46 1013.81 1014.18 1014.58 1014.96 1015.34 1015.70 1016.04 1016.38 1016.73 1017.10 1017.51 1017.95 1018.42 1018.92 1019.40 1019.86 1020.26 1020.57
1005.38 1005.28 1005.22 1005.23 1005.33 1005.52 1005.83 1006.24 1006.75 1007.36 1008.03 1008.74 1009.47 1010.17 1010.82 1011.40 1011.89 1012.30 1012.63 1012.89 1013.11 1013.31 1013.51 1013.73 1013.98 1014.26 1014.56 1014.88 1015.21 1015.54 1015.87 1016.20 1016.52 1016.85 1017.20 1017.58 1017.98 1018.42 1018.87 1019.34 1019.78 1020.20 1020.54 1020.81
1005.87 1005.77 1005.75 1005.83 1006.02 1006.31 1006.71 1007.21 1007.79 1008.44 1009.12 1009.82 1010.51 1011.16 1011.76 1012.30 1012.76 1013.16 1013.49 1013.76 1014.00 1014.22 1014.43 1014.64 1014.85 1015.08 1015.32 1015.56 1015.81 1016.05 1016.31 1016.57 1016.84 1017.14 1017.46 1017.82 1018.22 1018.63 1019.07 1019.51 1019.92 1020.30 1020.61 1020.83
1006.51 1006.41 1006.42 1006.53 1006.77 1007.13 1007.60 1008.15 1008.78 1009.45 1010.14 1010.82 1011.48 1012.11 1012.68 1013.19 1013.65 1014.05 1014.40 1014.70 1014.97 1015.20 1015.41 1015.61 1015.78 1015.95 1016.10 1016.25 1016.39 1016.54 1016.69 1016.87 1017.08 1017.33 1017.62 1017.96 1018.33 1018.74 1019.15 1019.57 1019.95 1020.30 1020.58 1020.78
1007.23 1007.13 1007.13 1007.26 1007.53 1007.93 1008.43 1009.02 1009.67 1010.35 1011.05 1011.73 1012.38 1012.99 1013.56 1014.08 1014.55 1014.98 1015.36 1015.69 1015.98 1016.24 1016.45 1016.62 1016.75 1016.84 1016.91 1016.95 1016.98 1017.02 1017.08 1017.18 1017.32 1017.52 1017.78 1018.10 1018.46 1018.86 1019.26 1019.66 1020.03 1020.35 1020.60 1020.78
1007.98 1007.86 1007.86 1007.99 1008.27 1008.68 1009.20 1009.80 1010.46 1011.15 1011.85 1012.53 1013.19 1013.81 1014.39 1014.93 1015.43 1015.89 1016.31 1016.68 1017.00 1017.27 1017.47 1017.62 1017.70 1017.72 1017.70 1017.65 1017.58 1017.53 1017.51 1017.54 1017.63 1017.80 1018.04 1018.36 1018.72 1019.12 1019.53 1019.92 1020.27 1020.58 1020.80 1020.96
1008.71 1008.58 1008.57 1008.70 1008.98 1009.38 1009.90 1010.51 1011.17 1011.87 1012.56 1013.25 1013.92 1014.55 1015.15 1015.72 1016.25 1016.75 1017.20 1017.60 1017.94 1018.22 1018.41 1018.53 1018.56 1018.53 1018.44 1018.32 1018.18 1018.07 1017.99 1017.99 1018.06 1018.22 1018.47 1018.80 1019.18 1019.59 1020.01 1020.40 1020.74 1021.02 1021.23 1021.35
1009.40 1009.27 1009.26 1009.40 1009.67 1010.07 1010.59 1011.18 1011.84 1012.52 1013.21 1013.90 1014.57 1015.21 1015.83 1016.41 1016.97 1017.49 1017.97 1018.38 1018.74 1019.01 1019.19 1019.29 1019.30 1019.22 1019.10 1018.94 1018.77 1018.63 1018.55 1018.54 1018.63 1018.81 1019.08 1019.44 1019.84 1020.27 1020.70 1021.09 1021.42 1021.68 1021.85 1021.94
1010.04 1009.94 1009.95 1010.10 1010.37 1010.77 1011.27 1011.85 1012.48 1013.14 1013.82 1014.49 1015.15 1015.78 1016.40 1016.99 1017.56 1018.08 1018.57 1018.99 1019.34 1019.61 1019.79 1019.88 1019.88 1019.80 1019.67 1019.51 1019.35 1019.23 1019.17 1019.19 1019.31 1019.53 1019.84 1020.22 1020.65 1021.10 1021.52 1021.90 1022.22 1022.45 1022.58 1022.64
1010.63 1010.59 1010.64 1010.81 1011.09 1011.48 1011.97 1012.52 1013.12 1013.75 1014.39 1015.03 1015.66 1016.28 1016.88 1017.46 1018.01 1018.53 1019.00 1019.42 1019.77 1020.04 1020.23 1020.32 1020.33 1020.28 1020.17 1020.04 1019.93 1019.85 1019.83 1019.90 1020.07 1020.32 1020.66 1021.06 1021.50 1021.94 1022.35 1022.71 1022.99 1023.18 1023.29 1023.30
1011.18 1011.21 1011.31 1011.51 1011.81 1012.20 1012.66 1013.18 1013.74 1014.33 1014.92 1015.52 1016.11 1016.69 1017.25 1017.80 1018.33 1018.83 1019.29 1019.71 1020.06 1020.34 1020.54 1020.66 1020.70 1020.69 1020.64 1020.57 1020.51 1020.49 1020.53 1020.65 1020.84 1021.12 1021.47 1021.86 1022.28 1022.69 1023.06 1023.37 1023.61 1023.77 1023.83 1023.83
1011.68 1011.78 1011.94 1012.18 1012.49 1012.87 1013.31 1013.80 1014.31 1014.85 1015.39 1015.94 1016.48 1017.01 1017.54 1018.05 1018.55 1019.03 1019.48 1019.89 1020.25 1020.54 1020.78 1020.94 1021.04 1021.08 1021.10 1021.09 1021.10 1021.14 1021.22 1021.37 1021.58 1021.85 1022.17 1022.53 1022.89 1023.24 1023.55 1023.81 1023.99 1024.10 1024.14 1024.12
1012.12 1012.30 1012.51 1012.78 1013.10 1013.47 1013.89 1014.34 1014.81 1015.29 1015.78 1016.28 1016.77 1017.26 1017.75 1018.24 1018.71 1019.18 1019.62 1020.03 1020.40 1020.72 1020.99 1021.20 1021.36 1021.47 1021.55 1021.61 1021.67 1021.75 1021.86 1022.01 1022.20 1022.44 1022.71 1022.99 1023.28 1023.55 1023.78 1023.97 1024.10 1024.17 1024.19 1024.17
1012.51 1012.73 1012.99 1013.28 1013.60 1013.96 1014.35 1014.77 1015.20 1015.64 1016.09 1016.54 1017.00 1017.46 1017.92 1018.38 1018.84 1019.29 1019.74 1020.16 1020.55 1020.90 1021.21 1021.47 1021.68 1021.85 1021.99 1022.10 1022.19 1022.30 1022.41 1022.54 1022.69 1022.86 1023.05 1023.25 1023.44 1023.62 1023.77 1023.88 1023.96 1024.00 1024.02 1024.01
1012.83 1013.09 1013.37 1013.66 1013.98 1014.33 1014.70 1015.08 1015.48 1015.89 1016.31 1016.74 1017.17 1017.61 1018.05 1018.50 1018.96 1019.41 1019.85 1020.28 1020.69 1021.07 1021.42 1021.72 1021.97 1022.18 1022.36 1022.50 1022.62 1022.72 1022.82 1022.91 1023.01 1023.11 1023.22 1023.32 1023.42 1023.51 1023.58 1023.64 1023.68 1023.70 1023.72 1023.73
1013.12 1013.39 1013.66 1013.95 1014.26 1014.59 1014.94 1015.30 1015.68 1016.07 1016.47 1016.89 1017.31 1017.74 1018.18 1018.62 1019.08 1019.53 1019.98 1020.41 1020.83 1021.23 1021.59 1021.91 1022.19 1022.43 1022.63 1022.79 1022.91 1023.01 1023.08 1023.14 1023.18 1023.22 1023.25 1023.28 1023.31 1023.33 1023.35 1023.37 1023.38 1023.40 1023.43 1023.47
Thickness
5766 5771 5768 5764 5767 5774 5776 5781 5774 5778 5778 5784 5791 5791 5795 5796 5798 5797 5792 5789 5784 5779 5777 5774 5770 5766 5763 5759 5756 5752 5747 5743 5739 5737 5736 5734 5733 5732 5731 5730 5729 5728 5727 5726
5749 5762 5761 5757 5762 5769 5773 5779 5781 5781 5778 5788 5790 5790 5787 5789 5790 5788 5786 5784 5781 5778 5774 5771 5768 5765 5761 5758 5756 5752 5747 5744 5741 5738 5735 5733 5732 5731 5729 5728 5727 5727 5725 5723
5731 5749 5747 5739 5760 5766 5770 5778 5779 5771 5776 5783 5777 5774 5776 5783 5784 5781 5780 5778 5775 5772 5770 5768 5765 5763 5759 5757 5755 5750 5746 5743 5740 5737 5734 5733 5732 5730 5727 5726 5725 5723 5722 5719
5723 5726 5712 5748 5774 5773 5769 5773 5780 5778 5779 5779 5775 5774 5777 5779 5776 5773 5773 5771 5770 5768 5767 5765 5763 5761 5758 5755 5751 5747 5743 5740 5739 5735 5733 5731 5729 5727 5724 5723 5721 5719 5717 5715
5713 5712 5724 5746 5757 5758 5753 5755 5768 5766 5767 5767 5768 5764 5758 5764 5766 5764 5763 5762 5762 5763 5761 5760 5758 5756 5753 5749 5746 5743 5739 5736 5735 5733 5730 5727 5724 5722 5720 5718 5715 5713 5711 5708
5705 5699 5703 5726 5748 5757 5749 5734 5748 5752 5749 5751 5753 5741 5735 5746 5750 5751 5752 5751 5752 5753 5752 5750 5750 5749 5744 5740 5737 5735 5733 5732 5730 5728 5725 5721 5719 5716 5714 5712 5709 5706 5703 5701
5696 5695 5709 5724 5740 5743 5716 5711 5732 5738 5738 5738 5736 5735 5732 5735 5736 5737 5738 5737 5738 5739 5738 5737 5738 5738 5733 5730 5726 5727 5726 5724 5721 5719 5717 5715 5712 5709 5707 5704 5701 5697 5694 5691
5691 5685 5692 5714 5721 5708 5704 5717 5723 5726 5727 5725 5723 5722 5723 5722 5722 5723 5722 5723 5724 5724 5724 5725 5727 5725 5721 5717 5717 5717 5715 5712 5709 5708 5707 5705 5702 5699 5697 5695 5691 5687 5684 5680
5689 5688 5698 5705 5702 5705 5710 5710 5712 5712 5713 5711 5708 5706 5707 5708 5708 5708 5706 5707 5710 5710 5709 5710 5711 5710 5707 5705 5706 5704 5702 5698 5696 5694 5692 5691 5690 5688 5685 5683 5680 5676 5672 5668
5685 5690 5693 5694 5696 5699 5702 5702 5703 5703 5701 5699 5695 5694 5693 5693 5693 5694 5692 5692 5695 5695 5694 5693 5694 5695 5694 5694 5694 5692 5688 5684 5682 5679 5676 5674 5674 5672 5669 5667 5665 5662 5658 5654
5674 5679 5682 5682 5682 5686 5689 5691 5691 5690 5689 5688 5685 5683 5681 5680 5680 5679 5679 5680 5681 5681 5680 5679 5681 5681 5681 5681 5680 5677 5674 5672 5669 5666 5663 5658 5653 5649 5649 5646 5647 5645 5642 5640
5662 5666 5664 5665 5671 5675 5675 5675 5676 5675 5673 5674 5673 5671 5669 5667 5667 5667 5667 5667 5668 5668 5667 5667 5667 5666 5667 5668 5667 5664 5662 5660 5658 5655 5651 5648 5642 5635 5630 5630 5628 5627 5625 5623
5661 5663 5661 5660 5662 5663 5663 5663 5664 5663 5662 5660 5659 5658 5656 5654 5654 5654 5653 5654 5654 5654 5654 5653 5653 5652 5653 5654 5654 5652 5650 5647 5646 5644 5642 5638 5634 5629 5624 5617 5614 5611 5610 5607
5655 5655 5651 5650 5650 5652 5652 5652 5652 5651 5650 5649 5647 5645 5644 5642 5641 5641 5640 5641 5642 5642 5641 5641 5640 5639 5640 5640 5640 5639 5638 5636 5635 5634 5632 5630 5627 5624 5619 5614 5608 5602 5596 5593
5647 5647 5644 5642 5642 5641 5641 5641 5639 5637 5636 5635 5634 5633 5632 5631 5630 5629 5630 5631 5630 5630 5629 5628 5627 5627 5628 5628 5627 5626 5626 5625 5624 5623 5622 5621 5618 5615 5611 5606 5600 5594 5588 5582
5636 5636 5635 5633 5631 5630 5631 5630 5628 5625 5625 5624 5624 5623 5622 5621 5620 5620 5620 5620 5619 5617 5617 5617 5617 5617 5618 5617 5616 5615 5614 5613 5614 5614 5612 5610 5606 5602 5597 5593 5587 5580 5574 5568
5628 5626 5625 5624 5622 5622 5622 5622 5620 5618 5616 5615 5614 5614 5612 5611 5610 5609 5609 5609 5609 5608 5608 5608 5607 5609 5609 5608 5608 5609 5608 5606 5603 5603 5599 5595 5592 5588 5583 5579 5573 5566 5559 5552
5626 5624 5622 5620 5618 5616 5614 5614 5613 5611 5609 5608 5608 5606 5604 5603 5601 5600 5601 5601 5600 5599 5599 5599 5599 5599 5599 5598 5599 5600 5600 5598 5594 5590 5586 5582 5578 5574 5569 5563 5558 5552 5545 5540
5621 5618 5617 5616 5614 5612 5609 5607 5606 5605 5604 5603 5602 5600 5598 5596 5595 5594 5594 5593 5591 5589 5588 5590 5589 5591 5590 5588 5588 5590 5590 5587 5582 5578 5574 5567 5564 5559 5553 5548 5542 5535 5530 5524
5614 5613 5612 5611 5610 5608 5605 5604 5603 5601 5600 5599 5597 5594 5592 5590 5590 5589 5588 5586 5585 5583 5583 5582 5582 5582 5581 5579 5578 5581 5579 5575 5570 5564 5559 5554 5548 5543 5536 5530 5524 5518 5512 5506
5609 5608 5606 5606 5605 5604 5603 5602 5600 5598 5597 5595 5593 5590 5588 5586 5586 5584 5582 5578 5576 5576 5575 5573 5573 5571 5570 5567 5568 5568 5565 5560 5555 5550 5544 5538 5531 5525 5519 5513 5507 5501 5496 5490
5605 5604 5603 5602 5601 5599 5599 5599 5597 5595 5593 5591 5589 5587 5584 5581 5580 5577 5575 5572 5569 5566 5567 5565 5562 5557 5556 5557 5558 5555 5550 5546 5540 5535 5528 5522 5516 5509 5503 5497 5492 5487 5481 5476
5599 5598 5597 5597 5596 5595 5595 5594 5592 5590 5587 5585 5583 5580 5579 5577 5575 5571 5566 5564 5562 5557 5556 5551 5547 5545 5543 5546 5544 5540 5535 5531 5526 5520 5514 5508 5502 5496 5490 5484 5479 5474 5468 5464
5591 5591 5590 5591 5591 5589 5587 5586 5585 5583 5581 5579 5577 5575 5573 5570 5566 5563 5557 5552 5550 5547 5543 5537 5535 5534 5532 5533 5529 5525 5521 5517 5512 5507 5501 5496 5490 5484 5478 5473 5468 5463 5458 5453
5584 5585 5585 5584 5583 5581 5579 5578 5577 5575 5574 5572 5570 5568 5566 5563 5558 5554 5549 5543 5537 5536 5532 5527 5524 5522 5521 5519 5516 5511 5507 5502 5497 5493 5488 5484 5479 5473 5467 5462 5457 5452 5447 5443
5579 5579 5578 5579 5578 5576 5575 5573 5570 5568 5567 5563 5561 5559 5556 5553 5549 5544 5540 5535 5531 5526 5524 5520 5516 5512 5511 5508 5504 5500 5495 5490 5486 5482 5477 5472 5468 5462 5457 5452 5447 5443 5439 5434
5574 5573 5572 5572 5572 5571 5569 5567 5563 5561 5558 5555 5552 5550 5548 5544 5540 5536 5531 5527 5523 5519 5515 5511 5508 5504 5501 5497 5493 5489 5484 5480 5476 5472 5467 5462 5458 5453 5448 5443 5439 5435 5430 5426